Miscellaneous Local Product
Issued by NWS Hastings, NE

Home | Current Version | Previous Version | Text Only | Print | Product List | Glossary On
Versions: 1 2 3 4 5 6 7 8 9 10 11 12 13 14 15 16 17 18 19 20 21 22 23 24 25 26 27 28 29 30 31 32 33 34 35 36 37 38 39 40 41 42 43 44 45 46 47 48 49 50
000
AXUS43 KGID 182302
MISGRI

GID CWA HOURLY WEATHER ROUNDUP
NATIONAL WEATHER SERVICE HASTINGS NE
500 PM CST MON DEC 18 2017

NOTE: "FAIR" INDICATES FEW OR NO CLOUDS BELOW 12,000 FEET WITH NO
SIGNIFICANT WEATHER AND/OR OBSTRUCTIONS TO VISIBILITY.

...SOUTH CENTRAL NEBRASKA...

CITY           SKY/WX    TMP DP  RH WIND       PRES   REMARKS
GRAND ISLAND   CLOUDY    50  29  44 SW12      29.85S
KEARNEY        CLOUDY    52  27  38 SW7       29.87R
HASTINGS       CLEAR     53  26  35 S10       29.87S
ORD            CLOUDY    51  23  33 SW9       29.81R
YORK           CLEAR     52  27  37 SW9       29.86R
AURORA         CLEAR     51  27  38 SW10      29.85S
LEXINGTON      CLOUDY    54  27  34 SW13      29.85S
HOLDREGE       CLOUDY    53  28  38 SW7       29.87R
HEBRON         CLEAR     52  31  45 SW6       29.90S

...NEBRASKA PANHANDLE...

CITY           SKY/WX    TMP DP  RH WIND       PRES   REMARKS
CHADRON        CLOUDY    45  26  47 NW10      29.84R
ALLIANCE       CLOUDY    50  24  36 W14       29.85R
SCOTTSBLUFF    CLOUDY    52  24  33 W18G26    29.89R
SIDNEY         CLOUDY    52  24  33 NW17G24   29.89S

...WESTERN AND NORTH CENTRAL NEBRASKA...

CITY           SKY/WX    TMP DP  RH WIND       PRES   REMARKS
VALENTINE      CLEAR     51  26  37 W9        29.78R
AINSWORTH      CLEAR     48  29  46 W9        29.78R
ONEILL         CLOUDY    51  29  42 SW8       29.78R
BROKEN BOW     PTCLDY    50  25  37 SW8       29.82S
IMPERIAL       CLOUDY    55  19  24 W7        29.88R
NORTH PLATTE   CLOUDY    54  22  28 W9        29.85R
MCCOOK         CLOUDY    56  24  29 SW6       29.87R

...EASTERN NEBRASKA...

CITY           SKY/WX    TMP DP  RH WIND       PRES   REMARKS
NORFOLK        PTCLDY    52  26  36 SW12      29.79R
SO SIOUX CITY  CLOUDY    49  26  41 SW9       29.78S
TEKAMAH        CLOUDY    51  25  36 SW10      29.81F
COLUMBUS       CLOUDY    52  26  36 SW10      29.83S
ALBION         PTCLDY    53  26  35 SW8       29.81R
OMAHA EPPLEY   MOCLDY    51  29  42 S10       29.84S
OFFUTT AFB     CLEAR     48  31  52 S6        29.85S
MILLARD        CLEAR     53  32  45 S5        29.85S
LINCOLN        CLEAR     51  31  46 S10       29.88R
NEBRASKA CITY  CLEAR     48  34  58 SW12      29.88F
BEATRICE       CLEAR     50  33  52 SW8       29.90R
FALLS CITY     CLEAR     50  32  50 SW12      29.91S

...NORTHERN KANSAS...

CITY           SKY/WX    TMP DP  RH WIND       PRES   REMARKS
GOODLAND       CLEAR     55  17  22 S3        29.88S
HILL CITY      CLEAR     53  31  42 SW7       29.89F
NORTON         CLEAR     54  23  30 S7        29.88R
PHILLIPSBURG   CLEAR     54  28  37 S7        29.89F
SMITH CENTER   PTCLDY    50  28  43 S8        29.90F
HAYS           CLEAR     52  29  41 S10       29.91F
RUSSELL        CLEAR     53  31  42 S13       29.90F
CONCORDIA      CLEAR     51  31  46 S10       29.90F
SALINA         CLEAR     51  33  50 S8        29.94F
TOPEKA         CLEAR     53  35  50 S8        29.95F



USA.gov is the U.S. government's official web portal to all federal, state and local government web resources and services.